Satellite-Ground Cal/Val Site Overpasses Predictions

Prediction of Satellite NPP Overpassing Cal/Val Site: Antarctic Dome C

Ground Cal/Val Site Location: Latitude: -75.10, Longitude: 123.35; Satellite-Ground Site NADIR distance within 100 km.

Table of predicted overpasses for the next 14.0 days since TLE Epoch: 5/18/2018
Interval Starting Time Ending Time Minimum Distance Time Minimum Distance (km)
1 05/18/2018 15:07:33 05/18/2018 15:07:40 05/18/2018 15:07:36 96.30
2 05/19/2018 14:48:31 05/19/2018 14:49:00 05/19/2018 14:48:46 15.00
3 05/21/2018 07:31:21 05/21/2018 07:31:50 05/21/2018 07:31:35 2.00
4 05/24/2018 14:54:48 05/24/2018 14:55:17 05/24/2018 14:55:03 21.53
5 05/25/2018 14:36:06 05/25/2018 14:36:20 05/25/2018 14:36:13 85.52
6 05/26/2018 07:37:38 05/26/2018 07:38:06 05/26/2018 07:37:52 34.40
7 05/27/2018 07:18:53 05/27/2018 07:19:12 05/27/2018 07:19:03 75.69
8 05/29/2018 15:01:08 05/29/2018 15:01:31 05/29/2018 15:01:19 58.46
9 05/30/2018 14:42:17 05/30/2018 14:42:42 05/30/2018 14:42:29 50.78
10 05/31/2018 07:43:58 05/31/2018 07:44:19 05/31/2018 07:44:08 69.58


NCC Satellite Cal/Val Overpasses Prediction Service
